{"data":{"norad_id":54662,"epoch":"2026-09-19T14:58:23.002176Z","epoch_age_seconds":97720,"freshness":"FRESH","line1":"1 54662U 22166W   26262.62387734 -.00000262  00000+0 -66683-3 0  9991","line2":"2 54662  87.9279 225.1863 0001990  79.8575 280.2784 13.21825458184018","mean_motion":13.21825458,"eccentricity":0.000199,"inclination_deg":87.9279,"raan_deg":225.1863,"arg_perigee_deg":79.8575,"mean_anomaly_deg":280.2784,"bstar":-0.00066683,"rev_number":18401,"period_min":108.94025313893,"perigee_km":1176.2518112466,"apogee_km":1179.2590564353,"semimajor_km":7555.8924338409,"source":"CELESTRAK","updated_at":"2026-09-20T09:00:44.745250Z"}}